TimeCDT,TemperatureF,Dew PointF,Humidity,Sea Level PressureIn,VisibilityMPH,Wind Direction,Wind SpeedMPH,Gust SpeedMPH,PrecipitationIn,Events,Conditions,WindDirDegrees,DateUTC
12:20 AM,48.2,46.4,93,29.96,10.0,NE,11.5,21.9,N/A,Rain,Light Rain,50,2013-05-10 05:20:00
12:49 AM,46.4,46.4,100,29.97,10.0,NE,8.1,-,N/A,Rain,Light Rain,40,2013-05-10 05:49:00
12:58 AM,46.8,45.7,96,29.99,10.0,NE,8.1,-,0.04,Rain,Light Rain,40,2013-05-10 05:58:00
6:58 AM,41.0,39.2,93,30.01,10.0,North,8.1,-,N/A,,Overcast,360,2013-05-10 11:58:00
7:58 AM,41.0,39.2,93,30.02,10.0,North,8.1,-,N/A,,Overcast,10,2013-05-10 12:58:00
8:58 AM,42.8,39.2,87,30.03,10.0,NNE,5.8,-,N/A,,Overcast,30,2013-05-10 13:58:00
9:58 AM,44.6,41.0,87,30.03,10.0,North,9.2,-,N/A,,Overcast,10,2013-05-10 14:58:00
10:58 AM,46.4,41.0,81,30.04,10.0,North,5.8,-,N/A,,Overcast,360,2013-05-10 15:58:00
11:58 AM,50.0,42.8,76,30.04,10.0,NNE,6.9,-,N/A,,Overcast,20,2013-05-10 16:58:00
12:58 PM,51.8,44.6,76,30.03,10.0,Variable,4.6,-,N/A,,Overcast,0,2013-05-10 17:58:00
1:58 PM,55.4,44.6,67,30.02,10.0,NNW,5.8,-,N/A,,Overcast,330,2013-05-10 18:58:00
2:58 PM,57.2,44.6,63,30.01,10.0,NW,5.8,-,N/A,,Mostly Cloudy,320,2013-05-10 19:58:00
3:55 PM,57.2,44.6,63,29.99,10.0,NW,5.8,-,N/A,,Mostly Cloudy,320,2013-05-10 20:55:00
4:58 PM,60.8,44.6,55,29.97,10.0,NNW,6.9,-,N/A,,Scattered Clouds,340,2013-05-10 21:58:00
5:58 PM,60.8,44.6,55,29.95,10.0,Calm,Calm,-,N/A,,Clear,0,2013-05-10 22:58:00
6:58 PM,59.2,45.9,61,29.93,10.0,South,6.9,-,N/A,,Clear,170,2013-05-10 23:58:00
7:58 PM,56.8,45.1,65,29.92,10.0,SSE,5.8,-,N/A,,Clear,160,2013-05-11 00:58:00
8:58 PM,50.0,44.8,82,29.93,10.0,South,5.8,-,N/A,,Clear,170,2013-05-11 01:58:00
9:58 PM,46.9,43.9,89,29.93,10.0,Variable,1.2,-,N/A,,Clear,0,2013-05-11 02:58:00
10:58 PM,48.0,44.1,86,29.92,10.0,Variable,1.2,-,N/A,,Clear,0,2013-05-11 03:58:00
11:58 PM,52.0,45.1,77,29.91,10.0,SW,9.2,-,N/A,,Clear,230,2013-05-11 04:58:00